EW2271 Weather Reports


Display with metric or nautical units.
time (UTC)temp
F
wind
direction
speed
MPH
gust
MPH
rain 1hr
in
rain 24hr
in
rain mn
in
humidity
%
barometer
mb
20181216173400 37 53 3.0 6.0 0.01 0.29 0.29 95 1012.5
20181216172927 37 25 3.0 6.0 0.01 0.29 0.29 95 1012.6
20181216172356 37 45 2.0 5.0 0.01 0.29 0.29 95 1012.6
20181216171902 37 52 2.0 9.0 0.01 0.29 0.29 95 1012.9
20181216171334 37 24 4.0 9.0 0.01 0.29 0.29 95 1012.9
20181216170845 36 67 4.0 5.0 0.02 0.29 0.29 95 1013.2
20181216170359 36 37 3.0 6.0 0.02 0.29 0.29 95 1013.2
20181216165923 36 48 3.0 8.0 0.02 0.29 0.29 95 1013.3
20181216165348 36 132 4.0 9.0 0.02 0.29 0.29 95 1013.3
20181216164921 36 67 4.0 9.0 0.03 0.29 0.29 95 1013.3
20181216164354 36 56 4.0 6.0 0.03 0.29 0.29 95 1013.4
20181216163920 36 13 3.0 6.0 0.02 0.28 0.28 95 1013.4
20181216163352 36 35 3.0 9.0 0.03 0.28 0.28 95 1013.6
20181216162925 36 59 4.0 9.0 0.03 0.28 0.28 95 1013.8
20181216162335 36 42 3.0 9.0 0.03 0.28 0.28 95 1013.9
20181216161840 36 59 3.0 8.0 0.04 0.28 0.28 95 1014.2
20181216161353 36 43 4.0 8.0 0.04 0.28 0.28 95 1014.4
20181216160900 36 166 2.0 6.0 0.03 0.27 0.27 95 1014.6
20181216160430 36 42 3.0 8.0 0.03 0.27 0.27 95 1014.8
20181216155915 36 91 3.0 9.0 0.04 0.27 0.27 95 1015.0
20181216155347 36 52 1.0 6.0 0.04 0.27 0.27 95 1015.3
20181216154853 36 57 2.0 6.0 0.03 0.26 0.26 95 1015.5
20181216154426 36 61 4.0 5.0 0.04 0.26 0.26 95 1015.6
20181216153835 36 41 2.0 6.0 0.04 0.26 0.26 95 1015.8
20181216153349 36 27 2.0 5.0 0.03 0.25 0.25 95 1015.9
20181216152855 36 52 3.0 5.0 0.03 0.25 0.25 95 1015.9
20181216152402 36 26 3.0 8.0 0.04 0.25 0.25 95 1016.0
20181216151834 36 25 4.0 8.0 0.03 0.24 0.24 95 1016.1
20181216151407 36 63 3.0 8.0 0.03 0.24 0.24 95 1016.3
20181216150832 36 50 3.0 9.0 0.04 0.24 0.24 95 1016.4
20181216150406 36 60 2.0 9.0 0.04 0.24 0.24 95 1016.6
20181216145850 36 35 3.0 8.0 0.03 0.23 0.23 95 1016.6
20181216145405 36 86 3.0 8.0 0.04 0.23 0.23 95 1016.7
20181216144910 36 55 3.0 8.0 0.04 0.23 0.23 95 1016.7
20181216144342 36 21 2.0 5.0 0.04 0.22 0.22 94 1017.0
20181216143908 36 53 1.0 8.0 0.04 0.22 0.22 94 1017.2
20181216143341 36 50 4.0 8.0 0.04 0.22 0.22 94 1017.2
20181216142846 36 77 3.0 9.0 0.04 0.21 0.21 95 1017.0
20181216142400 36 67 3.0 9.0 0.04 0.21 0.21 95 1017.0
20181216141926 35 37 2.0 10.0 0.04 0.21 0.21 95 1016.9
20181216141342 35 54 4.0 9.0 0.04 0.20 0.20 95 1016.7
20181216140849 35 52 3.0 8.0 0.04 0.20 0.20 94 1016.9
20181216140356 35 51 3.0 8.0 0.04 0.20 0.20 94 1017.1
20181216135847 35 49 4.0 8.0 0.05 0.20 0.20 94 1017.2
20181216135420 35 18 3.0 8.0 0.04 0.19 0.19 94 1017.4
20181216134846 35 72 2.0 8.0 0.05 0.19 0.19 94 1017.3
20181216134419 35 67 4.0 8.0 0.04 0.18 0.18 94 1017.3
20181216133851 35 38 3.0 8.0 0.04 0.18 0.18 94 1017.4
20181216133417 35 72 1.0 6.0 0.05 0.18 0.18 94 1017.4
20181216132833 35 131 2.0 8.0 0.04 0.17 0.17 94 1017.4
20181216132341 35 53 4.0 8.0 0.05 0.17 0.17 94 1017.6
20181216131846 35 63 4.0 5.0 0.05 0.17 0.17 94 1017.7
20181216131359 35 41 2.0 6.0 0.04 0.16 0.16 94 1017.9
20181216130926 35 45 2.0 6.0 0.05 0.16 0.16 94 1017.7
20181216130358 35 52 2.0 5.0 0.05 0.16 0.16 94 1017.6
20181216125843 35 45 2.0 7.0 0.05 0.15 0.15 94 1017.8
20181216125415 35 86 2.0 10.0 0.05 0.15 0.15 93 1017.4
20181216124848 35 56 4.0 11.0 0.05 0.14 0.14 93 1017.0
20181216124357 35 53 4.0 10.0 0.05 0.14 0.14 93 1017.0
20181216123903 35 67 2.0 6.0 0.05 0.14 0.14 93 1017.0
20181216123414 35 72 3.0 9.0 0.05 0.13 0.13 93 1017.0
20181216122838 35 35 4.0 9.0 0.05 0.13 0.13 93 1017.0
20181216122411 35 46 4.0 10.0 0.05 0.12 0.12 93 1017.1
20181216121918 35 67 5.0 10.0 0.05 0.12 0.12 93 1017.4
20181216121350 35 34 2.0 8.0 0.05 0.11 0.11 93 1017.5
20181216120923 35 51 4.0 9.0 0.05 0.11 0.11 93 1017.5
20181216120332 35 61 5.0 9.0 0.05 0.11 0.11 93 1017.9
20181216115855 35 39 3.0 8.0 0.05 0.10 0.10 93 1018.1
20181216115408 35 23 4.0 9.0 0.05 0.10 0.10 92 1018.2
20181216114913 35 22 5.0 9.0 0.04 0.09 0.09 92 1018.0
20181216114419 35 33 4.0 9.0 0.05 0.09 0.09 92 1018.1
20181216113851 35 40 3.0 9.0 0.04 0.08 0.08 92 1018.6
20181216113424 35 29 2.0 6.0 0.05 0.08 0.08 92 1018.7
20181216112849 35 48 4.0 5.0 0.05 0.08 0.08 91 1019.0
20181216111838 36 44 2.0 6.0 0.05 0.07 0.07 91 1019.3
20181216111344 36 32 3.0 6.0 0.04 0.06 0.06 91 1019.4
20181216110858 36 25 2.0 6.0 0.05 0.06 0.06 91 1019.4
20181216110404 36 67 2.0 6.0 0.05 0.06 0.06 90 1019.3
20181216105846 36 77 3.0 6.0 0.04 0.05 0.05 90 1019.2
20181216105400 36 55 2.0 5.0 0.04 0.05 0.05 90 1019.0
20181216104926 36 67 2.0 6.0 0.04 0.05 0.05 90 1018.8
20181216104358 36 77 3.0 8.0 0.03 0.04 0.04 89 1018.5
20181216103830 36 72 4.0 9.0 0.04 0.04 0.04 89 1018.3
20181216103358 36 45 4.0 9.0 0.03 0.03 0.03 88 1018.3
20181216102912 36 56 3.0 6.0 0.03 0.03 0.03 88 1018.5
20181216102418 36 101 3.0 8.0 0.02 0.02 0.02 88 1018.6
20181216101925 37 62 4.0 8.0 0.02 0.02 0.02 87 1018.6
20181216101355 37 54 2.0 6.0 0.02 0.02 0.02 86 1018.7
20181216100901 37 54 4.0 6.0 0.01 0.01 0.01 85 1018.7
20181216100333 37 41 2.0 6.0 0.01 0.01 0.01 84 1018.9
20181216095918 37 61 3.0 5.0 0.01 0.01 0.01 84 1019.0
20181216095350 37 77 3.0 5.0 0.01 0.01 0.01 83 1019.2
20181216094857 38 56 3.0 8.0 0.01 0.01 0.01 83 1019.4
20181216094413 38 41 3.0 8.0 0.01 0.01 0.01 82 1019.4
20181216093919 38 60 2.0 5.0 0.00 0.00 0.00 81 1019.6
20181216093352 38 87 3.0 8.0 0.00 0.00 0.00 79 1019.5
20181216092917 38 28 2.0 8.0 0.00 0.00 0.00 79 1019.5
20181216092349 38 60 3.0 5.0 0.00 0.00 0.00 79 1019.4
20181216091339 38 32 3.0 5.0 0.00 0.00 0.00 79 1019.5
20181216090912 38 43 3.0 5.0 0.00 0.00 0.00 79 1019.4
20181216090334 38 39 2.0 6.0 0.00 0.00 0.00 79 1019.5
20181216085923 38 55 3.0 8.0 0.00 0.00 0.00 79 1019.3
20181216085331 38 52 4.0 8.0 0.00 0.00 0.00 79 1019.2
20181216084905 38 37 2.0 6.0 0.00 0.00 0.00 79 1019.3
20181216084331 38 22 4.0 6.0 0.00 0.00 0.00 79 1019.2
20181216083836 38 45 4.0 6.0 0.00 0.00 0.00 79 1019.3
20181216083349 38 39 3.0 6.0 0.00 0.00 0.00 79 1019.5
20181216082854 38 37 2.0 6.0 0.00 0.00 0.00 78 1019.6
20181216082408 38 31 2.0 6.0 0.00 0.00 0.00 78 1019.5
20181216081914 38 56 3.0 6.0 0.00 0.00 0.00 78 1019.3
20181216081421 38 33 2.0 6.0 0.00 0.00 0.00 78 1019.1
20181216080851 38 46 2.0 8.0 0.00 0.00 0.00 78 1019.1
20181216080358 38 55 3.0 6.0 0.00 0.00 0.00 78 1019.0
20181216075849 38 44 2.0 6.0 0.00 0.02 0.00 78 1019.1
20181216075422 38 89 4.0 6.0 0.00 0.02 0.00 78 1019.1
20181216074847 38 43 4.0 6.0 0.00 0.02 0.00 78 1019.3
20181216074404 38 62 3.0 6.0 0.00 0.02 0.00 78 1019.4
20181216073910 39 67 1.0 10.0 0.00 0.02 0.00 78 1046.4
20181216073340 39 61 3.0 10.0 0.00 0.02 0.00 78 1019.3
20181216072358 39 53 2.0 8.0 0.00 0.02 0.00 78 1019.1
20181216071905 39 37 3.0 6.0 0.00 0.02 0.00 78 1019.0
20181216071331 39 27 2.0 5.0 0.00 0.02 0.00 78 1019.0
20181216070847 39 18 3.0 6.0 0.00 0.02 0.00 78 1019.1
20181216070413 39 41 3.0 10.0 0.00 0.02 0.00 78 1019.0
20181216065847 39 59 4.0 10.0 0.00 0.03 0.00 78 1019.1
20181216065355 39 30 2.0 6.0 0.00 0.03 0.00 78 1019.3
20181216064838 39 45 3.0 8.0 0.00 0.03 0.00 78 1019.4
20181216064345 39 47 4.0 8.0 0.00 0.03 0.00 78 1019.2
20181216063854 39 356 3.0 8.0 0.00 0.03 0.00 78 1019.2
20181216063336 39 39 4.0 9.0 0.00 0.03 0.00 78 1019.0
20181216062845 40 67 2.0 9.0 0.00 0.03 0.00 78 1019.1
20181216062351 40 72 5.0 9.0 0.00 0.03 0.00 77 1019.0
20181216061833 40 107 4.0 9.0 0.00 0.03 0.00 78 1019.2
20181216061338 40 58 3.0 6.0 0.00 0.03 0.00 78 1019.3
20181216060845 40 61 3.0 6.0 0.00 0.03 0.00 78 1019.3
20181216060354 40 54 3.0 9.0 0.00 0.03 0.00 78 1019.3
20181216055856 40 54 3.0 8.0 0.00 0.04 0.00 78 1019.4
20181216055338 40 36 3.0 8.0 0.00 0.04 0.00 78 1019.4
20181216054846 40 34 3.0 6.0 0.00 0.04 0.00 78 1019.6
20181216054354 40 32 3.0 8.0 0.00 0.04 0.00 78 1019.8
20181216053835 40 45 5.0 9.0 0.00 0.04 0.00 79 1019.7
20181216053344 40 44 4.0 8.0 0.00 0.04 0.00 79 1019.7
20181216052847 41 47 3.0 8.0 0.00 0.04 0.00 79 1020.1
20181216052334 41 53 2.0 5.0 0.00 0.04 0.00 79 1020.1
20181216051840 41 59 3.0 5.0 0.00 0.04 0.00 79 1020.2
20181216050856 41 50 3.0 6.0 0.00 0.04 0.00 79 1019.8
20181216050336 41 77 2.0 5.0 0.00 0.04 0.00 79 1020.0
20181216045853 41 31 3.0 5.0 0.00 0.04 0.04 79 1019.8
20181216045420 41 67 3.0 8.0 0.00 0.04 0.04 79 1019.6
20181216044836 42 67 4.0 8.0 0.00 0.04 0.04 78 1020.1
20181216044342 42 116 3.0 7.0 0.00 0.04 0.04 79 1020.2
20181216043847 42 43 2.0 8.0 0.00 0.04 0.04 79 1020.3
20181216043359 42 37 3.0 6.0 0.00 0.04 0.04 79 1020.1
20181216042904 42 72 3.0 6.0 0.00 0.04 0.04 79 1019.8
20181216042336 42 56 2.0 9.0 0.00 0.04 0.04 79 1019.5
20181216041902 42 51 3.0 9.0 0.00 0.04 0.04 80 1019.8
20181216041334 43 67 1.0 6.0 0.00 0.04 0.04 79 1019.7
20181216040840 43 40 4.0 6.0 0.00 0.04 0.04 79 1019.8
20181216040411 43 45 3.0 8.0 0.00 0.04 0.04 79 1020.1
20181216035838 43 46 3.0 5.0 0.00 0.04 0.04 79 1019.9
20181216035345 43 81 2.0 6.0 0.00 0.04 0.04 79 1020.0
20181216033912 44 43 4.0 8.0 0.00 0.04 0.04 78 1047.5
20181216033417 44 31 3.0 8.0 0.00 0.04 0.04 78 1020.4
20181216032923 44 37 3.0 5.0 0.00 0.04 0.04 78 1020.3
20181216032355 44 52 3.0 5.0 0.00 0.04 0.04 78 1020.5
20181216031921 44 51 2.0 8.0 0.00 0.04 0.04 78 1020.7
20181216031352 44 27 2.0 5.0 0.00 0.04 0.04 78 1020.5
20181216030926 44 77 3.0 7.0 0.00 0.04 0.04 78 1020.4
20181216030335 44 55 4.0 7.0 0.00 0.04 0.04 78 1020.5
20181216025859 44 28 3.0 8.0 0.00 0.04 0.04 78 1020.5
20181216025412 44 39 3.0 8.0 0.00 0.04 0.04 78 1047.6
20181216024918 44 26 2.0 4.0 0.00 0.04 0.04 79 1020.7
20181216024425 44 51 2.0 4.0 0.00 0.04 0.04 79 1021.0
20181216023856 44 52 2.0 4.0 0.00 0.04 0.04 79 1021.2
20181216023429 44 19 2.0 4.0 0.00 0.04 0.04 78 1021.1
20181216022852 44 18 2.0 3.0 0.00 0.04 0.04 78 1020.8
20181216022425 44 29 2.0 4.0 0.00 0.04 0.04 78 1020.8
20181216021835 44 20 3.0 4.0 0.00 0.04 0.04 78 1020.9
20181216021341 45 10 2.0 5.0 0.00 0.04 0.04 78 1021.2
20181216020853 45 10 2.0 5.0 0.00 0.04 0.04 78 1021.2
20181216020400 45 7 2.0 4.0 0.00 0.04 0.04 78 1021.5
20181216015924 45 16 2.0 4.0 0.00 0.04 0.04 78 1021.5
20181216015354 45 16 1.0 5.0 0.00 0.04 0.04 78 1021.4
20181216014927 45 41 2.0 3.0 0.00 0.04 0.04 78 1021.2
20181216014353 45 41 1.0 5.0 0.00 0.04 0.04 78 1021.1
20181216013926 45 41 2.0 5.0 0.00 0.04 0.04 78 1020.9
20181216013351 45 40 3.0 4.0 0.00 0.04 0.04 78 1020.8
20181216012909 45 24 2.0 5.0 0.00 0.04 0.04 78 1020.7
20181216012414 45 24 2.0 5.0 0.00 0.04 0.04 78 1020.5
20181216011847 45 47 3.0 5.0 0.00 0.04 0.04 78 1020.3
20181216011413 45 29 3.0 4.0 0.00 0.04 0.04 78 1020.2
20181216010846 46 20 2.0 5.0 0.00 0.04 0.04 78 1020.3
20181216010417 45 21 3.0 6.0 0.00 0.04 0.04 78 1020.5
20181216005901 45 8 4.0 8.0 0.00 0.04 0.04 79 1020.5
20181216005333 45 43 3.0 8.0 0.00 0.04 0.04 80 1020.4
20181216004844 45 29 4.0 5.0 0.00 0.04 0.04 81 1020.4
20181216004350 45 28 3.0 5.0 0.00 0.04 0.04 82 1020.5
20181216003903 45 27 2.0 4.0 0.00 0.04 0.04 83 1021.0
20181216003409 45 17 2.0 3.0 0.00 0.04 0.04 84 1021.2
20181216002841 45 17 2.0 3.0 0.00 0.04 0.04 85 1021.2
20181216002408 45 17 2.0 3.0 0.00 0.04 0.04 85 1021.1
20181216001840 45 17 1.0 3.0 0.00 0.04 0.04 86 1021.1
20181216001413 45 17 2.0 3.0 0.00 0.04 0.04 86 1021.2
20181216000839 45 17 1.0 3.0 0.00 0.04 0.04 86 1021.2
20181216000357 45 17 2.0 3.0 0.00 0.04 0.04 86 1021.1
20181215235919 45 18 1.0 3.0 0.00 0.04 0.04 86 1021.0
20181215235426 45 18 2.0 3.0 0.00 0.04 0.04 86 1020.8
20181215234859 45 18 1.0 2.0 0.00 0.04 0.04 86 1020.7
20181215234405 45 18 1.0 2.0 0.00 0.04 0.04 86 1020.8
20181215233912 45 18 1.0 2.0 0.00 0.04 0.04 86 1020.4
20181215233344 45 18 2.0 2.0 0.00 0.04 0.04 86 1020.4
20181215232915 45 18 1.0 2.0 0.00 0.04 0.04 86 1020.3
20181215232338 45 18 1.0 2.0 0.00 0.04 0.04 85 1020.3
20181215231855 45 18 2.0 2.0 0.00 0.04 0.04 85 1020.3
20181215231401 45 18 0.0 2.0 0.00 0.04 0.04 84 1020.0
20181215230834 45 18 1.0 2.0 0.00 0.04 0.04 85 1019.8
20181215230401 46 18 1.0 2.0 0.00 0.04 0.04 84 1019.6
20181215225852 46 18 1.0 2.0 0.00 0.04 0.04 84 1019.8
20181215225419 46 18 0.0 1.0 0.00 0.04 0.04 84 1020.3
20181215224850 46 18 0.0 2.0 0.00 0.04 0.04 84 1020.0
20181215224424 46 18 1.0 2.0 0.00 0.04 0.04 84 1019.7
20181215223849 46 18 1.0 2.0 0.00 0.04 0.04 84 1019.5
20181215223406 46 18 0.0 3.0 0.00 0.04 0.04 84 1019.2
20181215222912 46 18 2.0 3.0 0.00 0.04 0.04 84 1019.0
20181215222345 46 18 2.0 3.0 0.00 0.04 0.04 84 1018.5
20181215221912 46 16 2.0 4.0 0.00 0.04 0.04 84 1018.3
20181215221343 46 18 2.0 3.0 0.00 0.04 0.04 85 1018.1
20181215220917 46 18 2.0 3.0 0.00 0.04 0.04 85 1018.2
20181215220342 46 17 2.0 3.0 0.00 0.04 0.04 85 1018.2
20181215215834 46 12 2.0 3.0 0.00 0.04 0.04 85 1018.2
20181215215342 46 4 2.0 3.0 0.00 0.04 0.04 85 1018.2
20181215214848 46 4 2.0 3.0 0.00 0.04 0.04 85 1018.6
20181215214401 47 4 2.0 3.0 0.00 0.04 0.04 85 1018.7
20181215213908 47 4 1.0 3.0 0.00 0.04 0.04 85 1018.8
20181215213340 47 4 2.0 3.0 0.00 0.04 0.04 85 1018.7
20181215212907 47 4 1.0 3.0 0.00 0.04 0.04 84 1018.7
20181215212340 47 4 2.0 3.0 0.00 0.04 0.04 84 1019.0
20181215211913 47 4 1.0 3.0 0.00 0.04 0.04 84 1019.0
20181215211336 47 4 0.0 2.0 0.00 0.04 0.04 84 1019.3
20181215210854 47 4 0.0 2.0 0.00 0.04 0.04 84 1019.3
20181215210401 48 4 1.0 2.0 0.00 0.04 0.04 83 1019.3
20181215205926 48 4 0.0 2.0 0.00 0.04 0.04 83 1019.2
20181215205359 48 4 1.0 2.0 0.00 0.04 0.04 83 1019.3
20181215204925 48 4 1.0 2.0 0.00 0.04 0.04 83 1019.3
20181215204355 48 4 1.0 2.0 0.00 0.04 0.04 83 1019.4
20181215203902 48 4 1.0 2.0 0.00 0.04 0.04 83 1019.4
20181215203334 48 4 1.0 2.0 0.00 0.04 0.04 84 1019.4
20181215202343 48 4 0.0 2.0 0.00 0.04 0.04 85 1019.5
20181215201849 48 4 0.0 2.0 0.00 0.04 0.04 85 1019.4
20181215201420 48 4 1.0 2.0 0.00 0.04 0.04 85 1019.4
20181215200847 48 4 1.0 2.0 0.00 0.04 0.04 85 1019.3
20181215200420 48 4 1.0 3.0 0.00 0.04 0.04 85 1019.4
20181215195401 48 4 1.0 2.0 0.00 0.04 0.04 87 1019.5
20181215194834 48 4 1.0 2.0 0.00 0.04 0.04 87 1019.5
20181215194401 48 4 1.0 2.0 0.00 0.04 0.04 87 1019.6
20181215193918 48 4 0.0 2.0 0.00 0.04 0.04 88 1019.5
20181215193425 48 4 0.0 2.0 0.00 0.04 0.04 88 1019.6
20181215192857 48 4 0.0 2.0 0.00 0.04 0.04 88 1019.5
20181215192425 48 4 1.0 2.0 0.00 0.04 0.04 88 1019.5
20181215191855 48 4 1.0 2.0 0.00 0.04 0.04 88 1019.5
20181215191427 48 4 1.0 2.0 0.00 0.04 0.04 89 1019.6
20181215190853 48 4 1.0 3.0 0.00 0.04 0.04 89 1019.5
20181215190426 48 4 1.0 3.0 0.00 0.04 0.04 89 1019.5
20181215185852 48 4 1.0 2.0 0.00 0.04 0.04 90 1019.6
20181215185359 48 4 1.0 1.0 0.00 0.04 0.04 90 1019.6
20181215184911 48 4 0.0 3.0 0.00 0.04 0.04 90 1019.6
20181215184419 48 4 1.0 3.0 0.00 0.04 0.04 91 1019.5
20181215183851 48 4 1.0 3.0 0.00 0.04 0.04 91 1019.6
20181215183418 48 7 1.0 3.0 0.00 0.04 0.04 92 1019.5
20181215182850 48 8 2.0 3.0 0.00 0.04 0.04 93 1019.5
20181215182423 48 8 2.0 3.0 0.00 0.04 0.04 93 1019.5
20181215181833 48 8 1.0 3.0 0.00 0.04 0.04 94 1019.6
20181215181340 48 8 2.0 3.0 0.00 0.04 0.04 95 1019.7
20181215180853 47 8 0.0 1.0 0.00 0.04 0.04 96 1019.9
20181215180400 47 8 0.0 2.0 0.00 0.04 0.04 96 1019.8
20181215175844 47 8 1.0 2.0 0.00 0.04 0.04 96 1019.7
20181215175418 47 8 0.0 1.0 0.00 0.04 0.04 96 1019.7
20181215174850 47 8 0.0 1.0 0.00 0.04 0.04 96 1019.8
20181215174417 47 8 0.0 2.0 0.00 0.04 0.04 96 1019.9
20181215173850 47 8 1.0 3.0 0.00 0.04 0.04 96 1019.8